Location: Halvern
(37.6252°N, 122.0525°W)
Time: 19:10:02
(UTC+00:00)

Tiangong - Visible Passes

Search period start: 14 July 2024 00:00
Search period end: 24 July 2024 00:00
Orbit: 373 x 378 km, 41.5° (Epoch: 14 July)

Date Brightness Start Highest point End Pass type
(mag) Time Alt. Az. Time Alt. Az. Time Alt. Az.
14 Jul -2.4 11:02:45 88° SSW 11:02:46 89° SSE 11:05:53 10° ENE visible
15 Jul 0.9 10:02:58 12° E 10:02:58 12° E 10:03:15 10° ENE visible
15 Jul -1.3 11:34:58 19° WNW 11:36:55 46° N 11:39:56 10° ENE visible
16 Jul -0.8 10:35:06 40° NE 10:35:06 40° NE 10:37:17 10° ENE visible
16 Jul -0.8 12:08:10 10° WNW 12:11:06 37° N 12:14:01 10° ENE visible
17 Jul -1.0 11:07:13 29° NW 11:08:15 39° N 11:11:11 10° ENE visible
18 Jul 0.5 10:07:18 19° ENE 10:07:18 19° ENE 10:08:20 10° ENE visible
18 Jul -0.9 11:39:19 10° WNW 11:42:14 40° N 11:45:12 10° ENE visible
19 Jul -0.8 10:39:25 37° N 10:39:25 37° N 10:42:10 10° ENE visible
19 Jul -1.8 12:13:01 10° WNW 12:16:06 67° NNE 12:19:10 10° E visible
20 Jul -1.2 11:11:38 25° NW 11:13:03 47° N 11:16:04 10° E visible
21 Jul 0.7 10:12:00 16° ENE 10:12:00 16° ENE 10:12:50 10° ENE visible
21 Jul -2.3 11:44:02 14° WNW 11:46:40 85° SSW 11:49:46 10° ESE visible
22 Jul -0.6 10:44:43 32° E 10:44:43 32° E 10:46:34 10° E visible
22 Jul -1.3 12:17:15 10° W 12:20:00 29° SSW 12:22:43 10° SSE visible
23 Jul -1.2 11:17:52 35° SE 11:17:52 35° SE 11:19:54 10° SE visible
